Weather History for Kecskemet, Hungary

Change the Weather History Date:

Sunday, November 6, 2011

  Actual Average (LHBP) Record (LHBP)
Temperature  
Mean Temperature 50 °F -  
Max Temperature 62 °F 51 °F 64 °F (2008)
Min Temperature 37 °F 35 °F 26 °F (2007)
Degree Days  
Heating Degree Days 16    
Moisture  
Dew Point 37 °F    
Average Humidity 72    
Maximum Humidity 93    
Minimum Humidity 45    
Precipitation  
Precipitation 0.00 in - - ()
Sea Level Pressure  
Sea Level Pressure 30.17 in    
Wind  
Wind Speed 6 mph ()    
Max Wind Speed 11 mph    
Max Gust Speed -    
Visibility 3.5 miles    
Events      
Averages and records for this station are not official NWS values.
T = Trace of Precipitation, MM = Missing Value Source: Averaged Metar Reports

Daily Weather History Graph

Daily Weather History Graph

Search for Another Location

Airport:

Trip Planner

Search our weather history database for the weather conditions in past years. The results will help you decide how hot, cold, wet, or windy it might be!

Date:

Astronomy

Nov. 06, 2011 Rise Set
Actual Time 6:30 AM CET 4:18 PM CET
Civil Twilight 5:57 AM CET 4:50 PM CET
Nautical Twilight 5:21 AM CET 5:26 PM CET
Astronomical Twilight 4:46 AM CET 6:02 PM CET
Moon 2:06 PM CET (11/6) 2:05 AM CET (11/6)
Length of Visible Light 10h 52m
Length of Day
9h 48m
Waxing Gibbous, 84% of the Moon is Illuminated
Nov 6
Waxing Gibbous
Nov 10
Full
Nov 18
Last Quarter
Nov 25
New
Dec 2
First Quarter

Hourly Weather History & Observations

Time (CET) Temp. Windchill Dew Point Humidity Pressure Visibility Wind Dir Wind Speed Gust Speed Precip Events Conditions
12:15 AM 42.8 °F 38.7 °F 35.6 °F 76% 30.12 in - East 6.7 mph - N/A   Clear
12:45 AM 44.6 °F 42.3 °F 37.4 °F 76% 30.12 in - East 4.5 mph - N/A   Clear
1:15 AM 42.8 °F 40.2 °F 35.6 °F 76% 30.12 in - East 4.5 mph - N/A   Clear
1:45 AM 42.8 °F 40.2 °F 35.6 °F 76% 30.12 in - East 4.5 mph - N/A   Clear
2:15 AM 41.0 °F 36.5 °F 35.6 °F 81% 30.12 in - East 6.7 mph - N/A   Clear
2:45 AM 41.0 °F 38.1 °F 35.6 °F 81% 30.12 in - East 4.5 mph - N/A   Clear
3:15 AM 39.2 °F 36.0 °F 35.6 °F 87% 30.12 in - East 4.5 mph - N/A   Clear
4:15 AM 39.2 °F 34.4 °F 35.6 °F 87% 30.12 in - East 6.7 mph - N/A   Clear
4:45 AM 37.4 °F 32.2 °F 35.6 °F 93% 30.12 in 5.0 mi East 6.7 mph - N/A   Clear
5:15 AM 37.4 °F 32.2 °F 35.6 °F 93% 30.12 in 5.0 mi East 6.7 mph - N/A   Clear
5:45 AM - - - N/A% - 1.9 mi East 6.7 mph - N/A   Mist
6:15 AM 37.4 °F 33.9 °F 33.8 °F 87% 30.15 in 3.1 mi ENE 4.5 mph - N/A   Partly Cloudy
6:45 AM 37.4 °F 33.9 °F 33.8 °F 87% 30.15 in 2.5 mi East 4.5 mph - N/A   Partly Cloudy
7:15 AM 37.4 °F 33.9 °F 35.6 °F 93% 30.15 in 2.5 mi East 4.5 mph - N/A   Partly Cloudy
7:45 AM 39.2 °F 36.0 °F 35.6 °F 87% 30.18 in 2.5 mi East 4.5 mph - N/A   Scattered Clouds
8:15 AM 41.0 °F 38.1 °F 37.4 °F 87% 30.18 in 2.5 mi East 4.5 mph - N/A   Unknown
8:45 AM - - - N/A% - 3.1 mi East 6.7 mph - N/A   Haze
9:15 AM 48.2 °F - 39.2 °F 71% 30.18 in 3.1 mi East 6.7 mph - N/A   Haze
9:45 AM 51.8 °F - 41.0 °F 67% 30.18 in 3.1 mi ESE 6.7 mph - N/A   Haze
10:15 AM 57.2 °F - 41.0 °F 55% 30.18 in 3.7 mi SE 11.2 mph - N/A   Unknown
10:45 AM 55.4 °F - 41.0 °F 58% 30.18 in 4.3 mi SE 11.2 mph - N/A   Unknown
11:15 AM 57.2 °F - 39.2 °F 51% 30.18 in 4.3 mi ESE 8.9 mph - N/A   Unknown
11:45 AM - - - N/A% - - ESE 11.2 mph - N/A   Clear
12:15 PM 60.8 °F - 41.0 °F 48% 30.18 in 5.0 mi ESE 11.2 mph - N/A   Unknown
12:45 PM 60.8 °F - 41.0 °F 48% 30.18 in - SE 11.2 mph - N/A   Clear
1:15 PM 62.6 °F - 41.0 °F 45% 30.15 in - SE 11.2 mph - N/A   Clear
1:45 PM 60.8 °F - 39.2 °F 45% 30.15 in - SE 11.2 mph - N/A   Clear
2:15 PM 60.8 °F - 41.0 °F 48% 30.15 in - ESE 11.2 mph - N/A   Clear
2:45 PM - - - N/A% - 3.1 mi ESE 6.7 mph - N/A   Clear
3:15 PM 59.0 °F - 41.0 °F 51% 30.18 in - ESE 8.9 mph - N/A   Clear
3:45 PM 59.0 °F - 41.0 °F 51% 30.18 in - East 6.7 mph - N/A   Clear
4:15 PM 53.6 °F - 39.2 °F 58% 30.18 in - East 6.7 mph - N/A   Clear
4:45 PM 50.0 °F - 39.2 °F 66% 30.18 in - East 4.5 mph - N/A   Clear
5:15 PM 51.8 °F - 39.2 °F 62% 30.18 in - East 4.5 mph - N/A   Clear
5:45 PM - - - N/A% - 3.1 mi ESE 6.7 mph - N/A   Mist
6:15 PM 48.2 °F - 37.4 °F 66% 30.18 in - East 4.5 mph - N/A   Clear
6:45 PM 48.2 °F - 37.4 °F 66% 30.18 in - East 6.7 mph - N/A   Clear
7:15 PM 48.2 °F - 37.4 °F 66% 30.21 in 5.0 mi East 6.7 mph - N/A   Unknown
8:15 PM 41.0 °F - 35.6 °F 81% 30.21 in 5.0 mi East 2.2 mph - N/A   Unknown
8:45 PM - - - N/A% - 1.9 mi ESE 4.5 mph - N/A   Mist
9:15 PM 41.0 °F 38.1 °F 35.6 °F 81% 30.21 in 4.3 mi ESE 4.5 mph - N/A   Unknown
9:45 PM 39.2 °F - 35.6 °F 87% 30.21 in 4.3 mi ESE 2.2 mph - N/A   Unknown
10:15 PM 39.2 °F 36.0 °F 35.6 °F 87% 30.21 in 4.3 mi ESE 4.5 mph - N/A   Unknown
10:45 PM 39.2 °F 36.0 °F 33.8 °F 81% 30.24 in 3.7 mi East 4.5 mph - N/A   Unknown
11:15 PM 39.2 °F 36.0 °F 35.6 °F 87% 30.24 in 3.7 mi East 4.5 mph - N/A   Unknown
11:45 PM - - - N/A% - 1.9 mi North - - N/A   Mist